GW4179 Weather Reports


time (UTC)temp
F
wind
direction
speed
knots
gust
knots
rain 1hr
in
rain 24hr
in
rain mn
in
humidity
%
barometer
mb
20260505051823 50 165 0.0 0.0 0.00 0.00 0.00 82
20260505051320 50 165 0.0 0.0 0.00 0.00 0.00 82
20260505050818 50 164 0.0 0.0 0.00 0.00 0.00 84
20260505050317 50 164 0.0 0.0 0.00 0.00 0.00 84
20260505041746 54 179 0.0 0.0 0.00 0.00 0.00 73
20260505041243 55 180 0.0 0.0 0.00 0.00 0.00 72
20260505040740 55 181 0.0 0.0 0.00 0.00 0.00 70
20260505040237 55 185 0.0 0.0 0.00 0.00 0.00 70
20260505035734 55 184 0.0 0.0 0.00 0.00 0.00 69
20260505035230 56 184 0.0 0.0 0.00 0.00 0.00 68
20260505034728 56 190 0.0 0.0 0.00 0.00 0.00 68
20260505034225 55 204 0.0 0.9 0.00 0.00 0.00 69
20260505033721 56 192 0.0 0.0 0.00 0.00 0.00 69
20260505033219 56 184 0.0 0.0 0.00 0.00 0.00 69
20260505032717 56 186 0.0 0.0 0.00 0.00 0.00 68
20260505032212 56 186 0.0 0.0 0.00 0.00 0.00 68
20260505031710 56 200 0.0 0.9 0.00 0.00 0.00 68
20260505031206 57 190 0.0 0.9 0.00 0.00 0.00 67
20260505030703 57 192 0.0 0.0 0.00 0.00 0.00 66
20260505030159 57 203 0.9 2.6 0.00 0.00 0.00 66
20260505025655 57 210 0.0 0.0 0.00 0.00 0.00 66
20260505025153 57 192 0.0 0.0 0.00 0.00 0.00 67
20260505024651 57 165 0.0 0.0 0.00 0.00 0.00 67
20260505024147 56 173 0.0 0.0 0.00 0.00 0.00 67
20260505023645 56 180 0.0 0.0 0.00 0.00 0.00 68
20260505023142 56 187 0.0 0.0 0.00 0.00 0.00 68
20260505022640 56 167 0.0 0.0 0.00 0.00 0.00 68
20260505022137 57 164 0.0 0.0 0.00 0.00 0.00 67
20260505021633 57 182 0.0 0.0 0.00 0.00 0.00 66
20260505021130 58 176 0.0 0.0 0.00 0.00 0.00 65
20260505020625 59 177 0.0 0.0 0.00 0.00 0.00 64
20260505020122 59 182 0.0 2.6 0.00 0.00 0.00 63
20260505015619 60 199 1.7 2.6 0.00 0.00 0.00 62
20260505015116 60 209 1.7 2.6 0.00 0.00 0.00 62
20260505014612 60 188 1.7 5.2 0.00 0.00 0.00 61
20260505014110 60 246 3.5 5.2 0.00 0.00 0.00 61
20260505013607 60 207 1.7 3.5 0.00 0.00 0.00 61
20260505013104 60 216 2.6 3.5 0.00 0.00 0.00 61
20260505012602 60 226 1.7 2.6 0.00 0.00 0.00 61
20260505012059 61 199 1.7 3.5 0.00 0.00 0.00 60
20260505011554 61 248 2.6 5.2 0.00 0.00 0.00 60
20260505011052 61 220 2.6 5.2 0.00 0.00 0.00 60
20260505010547 61 241 1.7 5.2 0.00 0.00 0.00 60
20260505010044 61 236 3.5 6.1 0.00 0.00 0.00 60
20260505005540 61 201 1.7 2.6 0.00 0.00 0.00 59
20260505005038 62 212 1.7 3.5 0.00 0.00 0.00 59
20260505004534 62 234 2.6 2.6 0.00 0.00 0.00 59
20260505004031 62 208 3.5 6.1 0.00 0.00 0.00 58
20260505003529 62 208 1.7 5.2 0.00 0.00 0.00 58
20260505003026 62 200 1.7 6.1 0.00 0.00 0.00 58
20260505002526 62 254 3.5 7.8 0.00 0.00 0.00 57
20260505002026 62 206 3.5 5.2 0.00 0.00 0.00 58
20260505001522 63 202 2.6 6.1 0.00 0.00 0.00 57
20260505001019 63 187 4.3 7.8 0.00 0.00 0.00 57
20260505000517 63 255 5.2 5.2 0.00 0.00 0.00 56
20260505000014 63 145 1.7 6.1 0.00 0.00 0.00 56
20260504235511 63 258 5.2 8.7 0.00 0.00 0.00 55
20260504235007 64 225 2.6 5.2 0.00 0.00 0.00 56
20260504234505 64 261 6.1 9.6 0.00 0.00 0.00 55
20260504234001 64 190 2.6 7.8 0.00 0.00 0.00 55
20260504233456 64 234 3.5 5.2 0.00 0.00 0.00 54
20260504232954 64 236 7.0 9.6 0.00 0.00 0.00 54
20260504232451 64 258 2.6 5.2 0.00 0.00 0.00 54
20260504231948 64 252 3.5 11.3 0.00 0.00 0.00 54
20260504231444 64 245 4.3 7.8 0.00 0.00 0.00 54
20260504230941 64 267 4.3 12.2 0.00 0.00 0.00 53
20260504230437 65 245 5.2 9.6 0.00 0.00 0.00 54
20260504225937 65 239 4.3 6.1 0.00 0.00 0.00 54
20260504225433 65 266 2.6 6.1 0.00 0.00 0.00 53
20260504224930 64 241 4.3 8.7 0.00 0.00 0.00 54
20260504224427 64 230 7.8 9.6 0.00 0.00 0.00 54
20260504223924 64 245 3.5 9.6 0.00 0.00 0.00 54
20260504223419 65 256 8.7 17.4 0.00 0.00 0.00 53
20260504222915 66 269 12.2 16.5 0.00 0.00 0.00 51
20260504222413 65 284 7.8 12.2 0.00 0.00 0.00 52
20260504221911 65 249 6.1 12.2 0.00 0.00 0.00 52
20260504221408 66 271 3.5 9.6 0.00 0.00 0.00 52
20260504220905 67 249 9.6 11.3 0.00 0.00 0.00 50
20260504220401 66 261 5.2 16.5 0.00 0.00 0.00 51
20260504215859 66 239 7.8 13.9 0.00 0.00 0.00 51
20260504215355 66 264 8.7 12.2 0.00 0.00 0.00 51
20260504214851 65 237 3.5 12.2 0.00 0.00 0.00 52
20260504214348 66 235 11.3 16.5 0.00 0.00 0.00 51
20260504213845 66 242 5.2 9.6 0.00 0.00 0.00 51
20260504213340 66 189 3.5 11.3 0.00 0.00 0.00 52
20260504212838 66 248 6.1 9.6 0.00 0.00 0.00 51
20260504212334 66 248 5.2 11.3 0.00 0.00 0.00 50
20260504211832 66 243 7.0 17.4 0.00 0.00 0.00 50
20260504211328 66 251 3.5 9.6 0.00 0.00 0.00 50
20260504210826 68 252 10.4 14.8 0.00 0.00 0.00 47
20260504210323 68 208 7.0 17.4 0.00 0.00 0.00 47
20260504205820 68 282 11.3 14.8 0.00 0.00 0.00 47
20260504205318 69 263 16.5 18.2 0.00 0.00 0.00 46
20260504204816 68 263 6.1 12.2 0.00 0.00 0.00 48
20260504204314 67 222 8.7 16.5 0.00 0.00 0.00 48
20260504203813 68 215 7.8 16.5 0.00 0.00 0.00 47
20260504203309 67 228 10.4 14.8 0.00 0.00 0.00 49
20260504202804 67 227 5.2 12.2 0.00 0.00 0.00 48
20260504202302 68 286 7.0 8.7 0.00 0.00 0.00 47
20260504201758 67 259 7.0 9.6 0.00 0.00 0.00 49
20260504201255 67 265 8.7 16.5 0.00 0.00 0.00 48
20260504200754 68 245 6.1 12.2 0.00 0.00 0.00 47
20260504200249 68 263 4.3 8.7 0.00 0.00 0.00 47
20260504195746 68 269 8.7 13.9 0.00 0.00 0.00 48
20260504195241 68 217 5.2 12.2 0.00 0.00 0.00 49
20260504194739 67 226 4.3 8.7 0.00 0.00 0.00 50
20260504194235 66 284 9.6 20.0 0.00 0.00 0.00 50
20260504193731 66 265 4.3 8.7 0.00 0.00 0.00 50
20260504193229 67 257 8.7 14.8 0.00 0.00 0.00 50
20260504192727 66 113 1.7 8.7 0.00 0.00 0.00 52
20260504192225 66 247 4.3 8.7 0.00 0.00 0.00 52
20260504191724 66 227 4.3 13.9 0.00 0.00 0.00 51
20260504191221 65 244 6.1 12.2 0.00 0.00 0.00 52
20260504190715 66 218 7.0 8.7 0.00 0.00 0.00 52
20260504190212 65 269 5.2 17.4 0.00 0.00 0.00 52
20260504185709 66 257 11.3 12.2 0.00 0.00 0.00 51
20260504185205 65 241 4.3 8.7 0.00 0.00 0.00 53
20260504184701 66 264 8.7 11.3 0.00 0.00 0.00 53
20260504184157 65 101 3.5 8.7 0.00 0.00 0.00 53
20260504183654 65 180 4.3 6.1 0.00 0.00 0.00 52
20260504183151 65 263 10.4 13.9 0.00 0.00 0.00 55
20260504182649 66 252 4.3 12.2 0.00 0.00 0.00 52
20260504182146 66 139 4.3 7.8 0.00 0.00 0.00 52
20260504181643 66 212 3.5 8.7 0.00 0.00 0.00 51
20260504181141 66 247 4.3 8.7 0.00 0.00 0.00 53
20260504180640 65 149 1.7 6.1 0.00 0.00 0.00 54
20260504180138 64 263 7.8 12.2 0.00 0.00 0.00 54
20260504175635 63 274 10.4 14.8 0.00 0.00 0.00 54
20260504175132 64 194 4.3 14.8 0.00 0.00 0.00 54
20260504174630 63 234 7.8 11.3 0.00 0.00 0.00 54
20260504174126 63 249 6.1 12.2 0.00 0.00 0.00 55
20260504173623 64 196 3.5 9.6 0.00 0.00 0.00 53
20260504173121 64 244 3.5 6.1 0.00 0.00 0.00 53
20260504172617 63 187 6.1 13.9 0.00 0.00 0.00 54
20260504172114 64 231 7.8 9.6 0.00 0.00 0.00 51
20260504171610 63 244 5.2 9.6 0.00 0.00 0.00 52
20260504171108 64 191 7.0 9.6 0.00 0.00 0.00 51
20260504170603 64 266 5.2 9.6 0.00 0.00 0.00 50
20260504150941 61 294 10.4 12.2 0.00 0.00 0.00 49
20260504150438 61 231 3.5 8.7 0.00 0.00 0.00 49
20260504140904 57 275 7.0 13.9 0.00 0.00 0.00 51
20260504140400 57 216 7.8 11.3 0.00 0.00 0.00 51
20260504130325 53 204 2.6 9.6 0.00 0.00 0.00 57
20260504120248 48 219 2.6 3.5 0.00 0.00 0.00 66
20260504110715 44 196 0.0 0.9 0.00 0.00 0.00 69
20260504110212 44 195 1.7 2.6 0.00 0.00 0.00 69
20260504100131 44 181 3.5 5.2 0.00 0.00 0.00 69
20260504081524 44 199 0.9 0.9 0.00 0.00 0.00 62
20260504081019 44 192 0.9 0.9 0.00 0.00 0.00 61
20260504080516 44 192 0.9 2.6 0.00 0.00 0.00 61